Burnsville, North Carolina, United States (28714)
Lat: 35.92N, Lon: 82.3W
Wx Zone: NCZ049
Local Info
Past Weather Observations for Today

NOTE: This archive is for the closest National Weather Service station to Burnsville. Information may differ from the station used for current weather conditions.

Click here for Long-term Archive

Time Weather Temperature Dewpoint Humidity Pressure Winds Precip Visibility
12:54
Clear
66°F / 19°C 41°F / 5°C 40% 29.95 in
(1014 mb)
N 15 mph
(N 24 kph)
- 10SM
11:54
Partly Cloudy
64°F / 18°C 45°F / 7°C 49% 29.98 in
(1015 mb)
NNW 9.2 mph
(NNW 15 kph)
- 10SM
10:54
Clear
63°F / 17°C 46°F / 8°C 56% 30.01 in
(1016 mb)
N 8.1 mph
(N 13 kph)
- 10SM
09:54
Clear
59°F / 15°C 48°F / 9°C 68% 30.01 in
(1016 mb)
NNW 5.8 mph
(NNW 9 kph)
- 10SM
08:54
Clear
50°F / 10°C 46°F / 8°C 88% 30.01 in
(1016 mb)
Calm - 10SM
07:54
Partly Cloudy
45°F / 7°C 43°F / 6°C 93% 30.01 in
(1016 mb)
Calm - 10SM
06:54
Mostly Cloudy
43°F / 6°C 43°F / 6°C 100% 30.01 in
(1016 mb)
Calm - 10SM
05:54
Mostly Cloudy
43°F / 6°C 41°F / 5°C 93% 30.01 in
(1016 mb)
Calm - 10SM
05:46
Mostly Cloudy
43°F / 6°C 41°F / 5°C 93% 30.01 in
(1016 mb)
Calm - 10SM
05:38
Mostly Cloudy
Fog And Mist
43°F / 6°C 41°F / 5°C 93% 30.01 in
(1016 mb)
Calm - 3SM
05:35
Mostly Cloudy
Fog And Mist
43°F / 6°C 41°F / 5°C 93% 30.01 in
(1016 mb)
Calm - 1 1/2SM
05:14
Obscured
Fog
43°F / 6°C 41°F / 5°C 93% 30.01 in
(1016 mb)
Calm - 1/2SM
04:54
Obscured
Fog
43°F / 6°C 43°F / 6°C 100% 30.01 in
(1016 mb)
Calm - 1/4SM
04:30
Obscured
Fog
43°F / 6°C 43°F / 6°C 100% 30.01 in
(1016 mb)
Calm - 1/4SM
04:08
Obscured
Fog And Mist
43°F / 6°C 41°F / 5°C 93% 30.01 in
(1016 mb)
Calm - 3/4SM
04:05
Partly Cloudy
Fog And Mist
43°F / 6°C 43°F / 6°C 100% 30.01 in
(1016 mb)
Calm - 1 1/4SM
03:56
Partly Cloudy
Fog And Mist
43°F / 6°C 43°F / 6°C 100% 30.01 in
(1016 mb)
Calm - 2SM
03:54
Partly Cloudy
Fog And Mist
43°F / 6°C 43°F / 6°C 100% 30.01 in
(1016 mb)
Calm - 1 1/4SM
03:51
Obscured
Fog And Mist
43°F / 6°C 43°F / 6°C 100% 30.01 in
(1016 mb)
NNW 4.6 mph
(NNW 7 kph)
- 3/4SM
03:44
Obscured
Fog And Mist
43°F / 6°C 43°F / 6°C 100% 30.01 in
(1016 mb)
NNW 5.8 mph
(NNW 9 kph)
- 1SM
03:42
Partly Cloudy
Fog And Mist
43°F / 6°C 43°F / 6°C 100% 30.01 in
(1016 mb)
NNW 4.6 mph
(NNW 7 kph)
- 1 1/2SM
03:12
Partly Cloudy
Fog And Mist
45°F / 7°C 43°F / 6°C 93% 30.01 in
(1016 mb)
NW 3.5 mph
(NW 6 kph)
- 3SM
03:09
Partly Cloudy
Fog And Mist
45°F / 7°C 43°F / 6°C 93% 30.01 in
(1016 mb)
Calm - 1 3/4SM
03:05
Obscured
Fog And Mist
45°F / 7°C 43°F / 6°C 93% 30.01 in
(1016 mb)
Calm - 1SM
02:58
Partly Cloudy
Fog And Mist
45°F / 7°C 43°F / 6°C 93% 30.01 in
(1016 mb)
Calm - 1 1/4SM
02:54
Partly Cloudy
Fog And Mist
45°F / 7°C 43°F / 6°C 93% 30.01 in
(1016 mb)
Calm - 2 1/2SM
01:54
Clear
46°F / 8°C 45°F / 7°C 93% 30.01 in
(1016 mb)
NW 5.8 mph
(NW 9 kph)
- 10SM
00:54
Partly Cloudy
Fog And Mist
46°F / 8°C 45°F / 7°C 93% 30.01 in
(1016 mb)
NNW 5.8 mph
(NNW 9 kph)
- 3SM
00:36
Partly Cloudy
48°F / 9°C 46°F / 8°C 94% 30.04 in
(1017 mb)
NW 3.5 mph
(NW 6 kph)
- 7SM
00:21
Mostly Cloudy
46°F / 8°C 45°F / 7°C 93% 30.01 in
(1016 mb)
Calm - 10SM
00:12
Partly Cloudy
46°F / 8°C 45°F / 7°C 93% 30.01 in
(1016 mb)
Calm - 10SM
Time Weather Temperature Dewpoint Humidity Pressure Winds Precip Visibility


Weather for websites

WeatherForYou.com, LLC is not responsible for any damages or problems caused by this service. Current weather conditions are obtained from the closest station including government and personal stations which may have varying degrees of accuracy. Weather forecasts are derived from the NOAA NDFD. Like all things, this site belongs to Jesus Christ... He just trusts me to maintain it. If you have any questions or comments email webmaster@weatherforyou.com

Copyright © 2014, WeatherForYou.com LLC. All rights reserved.